カタログに戻る

NOAA 16 DEB

運用中SSO
NORAD 41399·DEBRIS·🇺🇸 United States

打ち上げ Sep 21, 2000 から Vandenberg Space Force Base

Loading…

次のパス (今後24時間)

TLE

最新Source: Space-Track

元期: Sep 12, 2026, 07:41 UTC

1 41399U 00055KC  26255.32033163  .00001701  00000-0  83803-3 0  9991
2 41399  98.7381 291.9340 0037543 327.9782  31.9113 14.18521159546260

AllMySatでNOAA 16 DEBをリアルタイム追跡

Download on the App Store